TimeEST,TemperatureF,Dew PointF,Humidity,Sea Level PressureIn,VisibilityMPH,Wind Direction,Wind SpeedMPH,Gust SpeedMPH,PrecipitationIn,Events,Conditions,WindDirDegrees,DateUTC
12:54 AM,34.0,24.1,67,29.57,10.0,SW,18.4,-,N/A,,Overcast,230,2014-01-20 05:54:00
1:54 AM,35.1,24.1,64,29.57,10.0,WSW,19.6,-,N/A,,Mostly Cloudy,240,2014-01-20 06:54:00
2:54 AM,34.0,25.0,70,29.59,10.0,WSW,15.0,-,N/A,,Mostly Cloudy,240,2014-01-20 07:54:00
3:54 AM,35.1,26.1,70,29.63,10.0,West,15.0,-,N/A,,Scattered Clouds,270,2014-01-20 08:54:00
4:10 AM,35.6,26.6,70,29.62,10.0,West,16.1,-,N/A,,Mostly Cloudy,260,2014-01-20 09:10:00
4:54 AM,34.0,27.0,75,29.67,10.0,West,11.5,-,N/A,,Mostly Cloudy,270,2014-01-20 09:54:00
5:54 AM,34.0,27.0,75,29.69,10.0,West,9.2,-,N/A,,Overcast,270,2014-01-20 10:54:00
6:02 AM,33.8,28.4,81,29.67,10.0,West,9.2,-,N/A,,Overcast,270,2014-01-20 11:02:00
6:15 AM,33.8,28.4,81,29.68,10.0,West,9.2,-,N/A,,Overcast,280,2014-01-20 11:15:00
6:24 AM,33.8,28.4,81,29.69,10.0,West,10.4,-,N/A,,Overcast,280,2014-01-20 11:24:00
6:54 AM,34.0,28.0,79,29.73,10.0,West,10.4,-,N/A,,Overcast,280,2014-01-20 11:54:00
7:34 AM,33.8,28.4,81,29.74,10.0,West,13.8,-,N/A,,Overcast,280,2014-01-20 12:34:00
7:54 AM,34.0,28.0,79,29.78,10.0,WNW,10.4,20.7,N/A,,Overcast,300,2014-01-20 12:54:00
8:16 AM,33.8,26.6,75,29.76,10.0,NW,12.7,-,N/A,,Overcast,320,2014-01-20 13:16:00
8:54 AM,33.1,26.1,75,29.81,10.0,NNW,12.7,-,N/A,,Mostly Cloudy,340,2014-01-20 13:54:00
9:54 AM,30.9,23.0,72,29.84,10.0,NNW,12.7,20.7,N/A,,Mostly Cloudy,340,2014-01-20 14:54:00
10:54 AM,30.9,21.9,69,29.87,10.0,NNW,8.1,-,N/A,,Mostly Cloudy,340,2014-01-20 15:54:00
11:54 AM,30.9,21.9,69,29.89,10.0,NNW,10.4,-,N/A,,Overcast,330,2014-01-20 16:54:00
12:54 PM,32.0,21.9,66,29.90,10.0,NW,3.5,-,N/A,,Overcast,310,2014-01-20 17:54:00
1:54 PM,32.0,23.0,69,29.88,10.0,West,3.5,-,N/A,,Mostly Cloudy,270,2014-01-20 18:54:00
2:10 PM,32.0,23.0,69,29.86,10.0,WSW,3.5,-,N/A,,Mostly Cloudy,250,2014-01-20 19:10:00
2:30 PM,32.0,23.0,69,29.86,10.0,SW,5.8,-,N/A,,Mostly Cloudy,220,2014-01-20 19:30:00
2:54 PM,33.1,24.1,70,29.89,10.0,WSW,6.9,-,N/A,,Overcast,250,2014-01-20 19:54:00
3:47 PM,32.0,24.8,75,29.87,10.0,SW,6.9,-,N/A,,Overcast,230,2014-01-20 20:47:00
3:54 PM,32.0,25.0,75,29.90,10.0,SW,5.8,-,N/A,,Overcast,220,2014-01-20 20:54:00
4:54 PM,32.0,25.0,75,29.91,10.0,South,5.8,-,N/A,,Overcast,180,2014-01-20 21:54:00
5:54 PM,30.9,26.1,82,29.91,10.0,SSW,5.8,-,N/A,,Overcast,200,2014-01-20 22:54:00
6:54 PM,30.0,26.1,85,29.93,10.0,SSW,4.6,-,N/A,,Overcast,210,2014-01-20 23:54:00
7:47 PM,30.2,26.6,86,29.91,10.0,Calm,Calm,-,N/A,,Overcast,0,2014-01-21 00:47:00
7:54 PM,30.9,26.1,82,29.94,10.0,Calm,Calm,-,N/A,,Overcast,0,2014-01-21 00:54:00
8:54 PM,32.0,26.1,79,29.93,10.0,WSW,5.8,-,N/A,,Overcast,250,2014-01-21 01:54:00
9:54 PM,28.9,23.0,78,29.95,10.0,NNE,12.7,-,N/A,,Overcast,20,2014-01-21 02:54:00
10:46 PM,26.6,19.4,74,29.92,7.0,NNE,13.8,21.9,0.00,Snow,Light Snow,30,2014-01-21 03:46:00
10:54 PM,26.1,19.0,75,29.96,7.0,NNE,18.4,21.9,0.00,Snow,Light Snow,30,2014-01-21 03:54:00
11:03 PM,24.8,19.4,80,29.93,8.0,NE,17.3,-,0.00,Snow,Light Snow,40,2014-01-21 04:03:00
11:54 PM,24.1,19.0,81,29.94,5.0,NE,18.4,24.2,0.01,Snow,Light Snow,40,2014-01-21 04:54:00